Date Time,Air Temp,Sky Temp,Clarity,Light Level,Rain Sensor,Readings
2011-07-16 00:00:08,20.2,11.4,8.8,0.0,9.5,111
2011-07-16 00:05:08,19.9,13.4,6.5,0.0,8.7,112
2011-07-16 00:10:08,20.2,13.4,6.8,0.0,5.0,111
2011-07-16 00:15:08,20.2,12.2,8.0,0.0,5.4,112
2011-07-16 00:20:08,20.1,9.9,10.3,0.0,4.1,111
2011-07-16 00:25:08,20.1,10.5,9.6,0.0,11.9,112
2011-07-16 00:30:08,20.3,13.8,6.6,0.0,26.1,111
2011-07-16 00:35:08,20.5,15.6,4.9,0.0,31.6,111
2011-07-16 00:40:08,20.7,15.6,5.1,0.0,26.1,112
2011-07-16 00:45:08,20.5,14.7,5.7,0.0,5.9,111
2011-07-16 00:50:08,20.3,11.7,8.6,0.0,3.2,111
2011-07-16 00:55:08,20.3,12.3,8.0,0.0,11.3,112
2011-07-16 01:00:08,20.5,16.5,3.9,0.0,29.0,111
2011-07-16 01:05:08,20.7,15.6,5.0,0.0,20.6,112
2011-07-16 01:10:08,20.7,15.6,5.1,0.1,24.2,111
2011-07-16 01:15:08,20.8,16.2,4.6,0.0,27.1,112
2011-07-16 01:20:08,20.9,15.4,5.4,0.0,15.4,111
2011-07-16 01:25:08,20.7,14.9,5.7,0.0,8.1,111
2011-07-16 01:30:08,20.5,15.0,5.5,0.0,4.5,111
2011-07-16 01:35:08,20.0,15.1,4.9,0.0,4.5,112
2011-07-16 01:40:08,20.3,14.8,5.5,0.0,5.0,111
2011-07-16 01:45:08,20.3,14.8,5.5,0.1,6.7,112
2011-07-16 01:50:08,20.4,15.9,4.4,0.0,13.1,111
2011-07-16 01:55:08,20.6,15.9,4.7,0.0,13.6,112
2011-07-16 02:00:08,20.7,16.3,4.4,0.0,17.6,111
2011-07-16 02:05:08,20.8,15.9,4.9,0.0,29.3,111
2011-07-16 02:10:08,20.4,16.4,3.9,0.0,33.8,111
2011-07-16 02:15:08,20.7,15.6,5.2,0.0,29.8,112
2011-07-16 02:20:08,20.8,15.8,5.0,0.0,22.0,111
2011-07-16 02:25:08,20.8,14.9,5.9,0.0,14.7,112
2011-07-16 02:30:08,20.8,16.5,4.3,0.0,20.3,111
2011-07-16 02:35:08,20.8,16.4,4.4,0.0,19.1,111
2011-07-16 02:40:08,20.8,16.0,4.8,0.1,17.3,112
2011-07-16 02:45:08,20.8,15.7,5.1,0.0,16.8,111
2011-07-16 02:50:08,20.8,16.2,4.6,0.0,18.9,111
2011-07-16 02:55:08,20.8,15.5,5.3,0.0,14.8,112
2011-07-16 03:00:08,20.8,15.8,5.1,0.0,21.4,111
2011-07-16 03:05:08,20.9,15.0,5.9,0.0,11.8,112
2011-07-16 03:10:08,20.7,14.3,6.4,0.0,5.1,111
2011-07-16 03:15:08,20.5,14.7,5.8,0.0,7.4,111
2011-07-16 03:20:08,20.5,14.6,5.9,0.0,7.0,111
2011-07-16 03:25:08,20.5,14.6,5.9,0.0,9.1,112
2011-07-16 03:30:08,20.5,14.9,5.6,0.0,8.5,111
2011-07-16 03:35:08,20.5,14.5,6.0,0.0,5.6,111
2011-07-16 03:40:08,20.4,14.3,6.1,0.0,2.9,112
2011-07-16 03:45:08,20.4,12.8,7.5,0.1,2.5,111
2011-07-16 03:50:08,20.4,11.3,9.1,0.1,2.7,111
2011-07-16 03:55:08,20.4,11.0,9.4,0.2,3.1,112
2011-07-16 04:00:08,20.4,12.1,8.3,0.4,2.3,110
2011-07-16 04:05:08,20.5,12.4,8.1,0.3,2.3,112
2011-07-16 04:10:08,20.5,11.5,9.0,0.3,3.6,111
2011-07-16 04:15:08,20.5,12.0,8.6,0.5,2.6,111
2011-07-16 04:20:08,20.5,12.2,8.3,0.7,2.7,112
2011-07-16 04:25:08,20.5,11.4,9.2,1.2,3.9,111
2011-07-16 04:30:08,20.5,11.7,8.8,2.2,2.7,112
2011-07-16 04:35:08,20.5,12.1,8.4,3.8,2.3,111
2011-07-16 04:40:08,20.6,12.0,8.6,6.5,2.3,112
2011-07-16 04:45:08,20.3,11.0,9.2,8.6,7.3,111
2011-07-16 04:50:08,20.6,10.9,9.7,10.5,3.2,111
2011-07-16 04:55:08,20.5,11.0,9.6,14.1,3.5,112
2011-07-16 05:00:08,20.5,11.5,9.0,17.1,14.8,112
2011-07-16 05:05:08,20.8,15.2,5.6,21.2,21.3,111
2011-07-16 05:10:08,21.0,15.0,5.9,25.0,23.6,111
2011-07-16 05:15:09,21.0,15.2,5.8,26.4,24.1,111
2011-07-16 05:20:09,21.1,15.0,6.1,27.3,17.3,112
2011-07-16 05:25:09,20.8,14.3,6.5,28.4,4.3,111
2011-07-16 05:30:09,20.6,14.1,6.5,29.9,3.2,112
2011-07-16 05:35:09,20.5,12.6,7.9,30.5,5.5,111
2011-07-16 05:40:09,20.5,11.6,8.9,30.4,6.2,111
2011-07-16 05:45:09,20.5,10.7,9.8,30.6,5.1,112
2011-07-16 05:50:09,20.5,11.2,9.3,31.0,8.0,111
2011-07-16 05:55:09,20.5,12.6,8.0,31.1,9.3,111
2011-07-16 06:00:09,20.5,13.4,7.1,31.3,7.8,112
2011-07-16 06:05:09,20.5,11.9,8.6,31.5,2.6,111
2011-07-16 06:10:09,20.4,11.7,8.7,31.5,2.7,112
2011-07-16 06:15:09,20.4,11.8,8.7,31.4,2.5,111
2011-07-16 06:20:09,20.4,10.8,9.6,31.4,4.3,111
2011-07-16 06:25:09,20.4,10.8,9.6,31.5,2.9,112
2011-07-16 06:30:09,20.4,11.4,9.0,31.6,2.7,111
2011-07-16 06:35:09,20.4,11.6,8.8,31.9,2.6,111
2011-07-16 06:40:09,20.5,14.1,6.4,31.9,20.6,112
2011-07-16 06:45:09,20.7,14.7,5.9,31.9,9.4,112
2011-07-16 06:50:09,20.7,15.1,5.6,31.8,12.5,111
2011-07-16 06:55:09,20.8,14.8,6.0,31.9,7.0,112
2011-07-16 07:00:09,20.8,15.2,5.5,32.1,4.9,111
2011-07-16 07:05:09,20.8,15.1,5.7,32.1,6.2,112
2011-07-16 07:10:09,20.8,14.9,5.9,32.1,5.0,111
2011-07-16 07:15:09,20.8,15.0,5.8,32.2,5.0,112
2011-07-16 07:20:09,20.9,15.6,5.2,32.3,7.9,111
2011-07-16 07:25:09,21.0,15.3,5.7,32.2,8.8,111
2011-07-16 07:30:09,21.1,16.0,5.1,32.2,12.8,112
2011-07-16 07:35:09,20.8,15.9,5.0,32.2,11.0,111
2011-07-16 07:40:09,21.2,15.6,5.6,32.2,16.0,112
2011-07-16 07:45:09,21.4,16.3,5.0,32.1,28.2,111
2011-07-16 07:50:09,21.4,15.6,5.8,32.2,32.9,112
2011-07-16 07:55:09,21.5,15.5,6.0,32.3,26.5,111
2011-07-16 08:00:09,21.5,15.8,5.7,32.2,26.1,111
2011-07-16 08:05:09,21.6,15.9,5.8,32.2,24.8,112
2011-07-16 08:10:09,21.7,16.0,5.7,32.3,21.7,111
2011-07-16 08:15:09,21.7,15.8,5.9,32.4,17.5,111
2011-07-16 08:20:09,21.7,15.5,6.1,32.3,16.3,112
2011-07-16 08:25:09,21.6,14.4,7.2,32.3,8.8,112
2011-07-16 08:30:09,21.4,15.0,6.4,32.3,7.1,111
2011-07-16 08:35:09,21.3,15.1,6.2,32.3,5.1,111
2011-07-16 08:40:09,21.2,15.1,6.1,32.2,4.1,112
2011-07-16 08:45:09,21.1,14.3,6.8,32.2,5.7,111
2011-07-16 08:50:09,21.1,12.9,8.1,32.1,3.9,112
2011-07-16 08:55:09,21.0,11.7,9.2,32.1,2.8,111
2011-07-16 09:00:09,21.0,11.7,9.2,32.2,3.3,111
2011-07-16 09:05:09,21.0,11.9,9.1,32.2,2.7,111
2011-07-16 09:10:09,21.0,11.9,9.1,32.2,2.8,111
2011-07-16 09:15:09,21.0,11.8,9.2,32.2,3.9,112
2011-07-16 09:20:09,21.1,12.7,8.5,32.2,12.4,112
2011-07-16 09:25:09,21.3,14.6,6.7,32.2,23.7,111
2011-07-16 09:30:09,21.5,15.1,6.5,32.3,26.3,112
2011-07-16 09:35:09,21.7,14.6,7.1,32.3,14.1,111
2011-07-16 09:40:09,21.6,13.9,7.7,32.4,5.9,111
2011-07-16 09:45:09,21.4,14.1,7.4,32.3,5.0,112
2011-07-16 09:50:09,21.4,15.1,6.2,32.3,16.0,111
2011-07-16 09:55:09,21.6,14.9,6.6,32.3,25.9,112
2011-07-16 10:00:09,21.7,14.6,7.1,32.3,26.2,111
2011-07-16 10:05:09,21.7,14.4,7.3,32.4,19.3,111
2011-07-16 10:10:09,21.7,14.4,7.3,32.3,11.9,111
2011-07-16 10:15:09,21.6,14.0,7.6,32.4,12.5,111
2011-07-16 10:20:09,21.5,13.4,8.1,32.4,4.5,112
2011-07-16 10:25:09,21.3,14.0,7.3,32.4,4.0,111
2011-07-16 10:30:09,21.3,14.7,6.6,32.4,5.6,111
2011-07-16 10:35:09,21.4,14.9,6.5,32.4,14.8,112
2011-07-16 10:40:09,21.6,14.6,7.0,32.4,17.9,111
2011-07-16 10:45:09,21.8,14.5,7.3,32.3,24.2,111
2011-07-16 10:50:09,21.9,14.0,7.8,32.3,24.0,112
2011-07-16 10:55:09,21.4,14.3,7.1,32.4,34.0,111
2011-07-16 11:00:09,21.8,13.8,8.0,32.3,29.1,111
2011-07-16 11:05:09,21.8,13.5,8.3,32.3,24.5,112
2011-07-16 11:10:09,21.7,13.7,8.0,32.3,20.6,111
2011-07-16 11:15:09,21.6,12.8,8.8,32.3,8.3,111
2011-07-16 11:20:09,21.4,13.6,7.8,32.3,20.2,112
2011-07-16 11:25:09,21.5,13.4,8.2,32.3,26.1,111
2011-07-16 11:30:09,21.6,12.8,8.8,32.4,27.2,111
2011-07-16 11:35:09,21.7,12.9,8.8,32.4,25.4,112
2011-07-16 11:40:09,21.7,13.1,8.6,32.4,31.1,111
2011-07-16 11:45:09,21.6,12.6,9.0,32.3,30.3,111
2011-07-16 11:50:09,21.2,13.0,8.2,32.2,28.8,111
2011-07-16 11:55:09,21.7,12.8,8.9,32.2,25.6,111
2011-07-16 12:00:09,21.6,12.6,9.1,32.3,28.2,112
2011-07-16 12:05:09,21.6,12.9,8.7,32.4,28.2,111
2011-07-16 12:10:09,21.7,12.7,9.0,32.3,27.0,112
2011-07-16 12:15:09,21.7,12.6,9.1,32.4,21.8,111
2011-07-16 12:20:09,21.7,12.3,9.4,32.3,23.1,112
2011-07-16 12:25:09,21.6,12.8,8.8,32.5,22.1,111
2011-07-16 12:30:09,21.7,13.2,8.6,32.4,17.9,112
2011-07-16 12:35:09,21.6,13.7,7.9,32.4,19.8,111
2011-07-16 12:40:09,21.6,14.0,7.6,32.4,24.5,111
2011-07-16 12:45:09,21.6,12.6,9.1,32.5,16.0,112
2011-07-16 12:50:09,21.7,11.6,10.1,32.5,14.8,111
2011-07-16 12:55:09,21.6,12.1,9.4,32.5,9.1,112
2011-07-16 13:00:09,21.6,12.3,9.3,32.5,14.7,111
2011-07-16 13:05:09,21.7,13.8,7.9,32.5,9.5,111
2011-07-16 13:10:09,21.6,11.8,9.8,32.4,4.1,112
2011-07-16 13:15:09,21.4,12.1,9.3,32.4,2.5,112
2011-07-16 13:20:09,21.5,11.3,10.2,32.5,10.2,111
2011-07-16 13:25:09,21.7,12.6,9.1,32.6,2.5,111
2011-07-16 13:30:09,22.0,12.2,9.8,32.6,2.3,112
2011-07-16 13:35:09,22.5,12.1,10.4,32.6,2.3,111
2011-07-16 13:40:09,22.9,10.9,12.0,32.6,2.3,112
2011-07-16 13:45:09,23.0,12.0,11.0,32.5,2.4,111
2011-07-16 13:50:09,22.8,11.7,11.1,32.5,2.3,111
2011-07-16 13:55:09,22.6,12.3,10.4,32.5,2.3,112
2011-07-16 14:00:09,22.6,12.0,10.6,32.5,3.4,111
2011-07-16 14:05:09,22.7,13.2,9.5,32.6,2.3,111
2011-07-16 14:10:09,23.2,12.5,10.7,32.6,2.2,112
2011-07-16 14:15:09,23.7,12.6,11.1,32.6,2.3,111
2011-07-16 14:20:09,24.1,12.2,11.8,32.6,2.4,111
2011-07-16 14:25:09,24.0,12.4,11.6,32.6,2.4,112
2011-07-16 14:30:09,23.8,12.0,11.8,32.6,2.3,111
2011-07-16 14:35:09,23.8,11.1,12.7,32.6,2.3,112
2011-07-16 14:40:09,23.8,11.8,12.0,32.6,2.3,111
2011-07-16 14:45:09,24.1,12.3,11.8,32.6,2.4,112
2011-07-16 14:50:09,24.5,10.7,13.8,32.5,2.3,111
2011-07-16 14:55:09,23.6,10.6,13.0,32.5,2.3,112
2011-07-16 15:00:09,22.9,10.4,12.5,32.5,2.2,111
2011-07-16 15:05:09,22.5,11.2,11.3,32.5,2.3,112
2011-07-16 15:10:09,22.4,11.7,10.7,32.5,2.3,111
2011-07-16 15:15:09,22.5,10.5,12.0,32.5,2.3,111
2011-07-16 15:20:09,22.7,11.2,11.5,32.6,2.3,111
2011-07-16 15:25:09,24.0,6.3,17.6,32.6,2.3,111
2011-07-16 15:30:09,27.1,7.0,20.1,32.6,2.3,112
2011-07-16 15:35:09,28.2,4.7,23.5,32.6,2.3,111
2011-07-16 15:40:09,30.0,1.6,28.4,32.6,2.3,112
2011-07-16 15:45:09,30.5,1.1,29.4,32.6,2.3,111
2011-07-16 15:50:09,30.4,1.1,29.4,32.6,2.3,111
2011-07-16 15:55:09,30.0,1.2,28.8,32.6,2.3,111
2011-07-16 16:00:09,30.8,0.7,30.1,32.6,2.3,112
2011-07-16 16:05:09,30.8,-0.2,31.0,32.6,2.3,111
2011-07-16 16:10:09,30.6,1.0,29.6,32.6,2.3,111
2011-07-16 16:15:09,30.7,0.7,30.0,32.6,2.3,111
2011-07-16 16:20:09,30.9,1.8,29.0,32.6,2.3,111
2011-07-16 16:25:09,30.9,4.1,26.7,32.6,2.3,112
2011-07-16 16:30:09,31.0,3.4,27.5,32.6,2.3,111
2011-07-16 16:35:09,30.8,3.0,27.8,32.6,2.3,111
2011-07-16 16:40:09,30.9,1.0,29.9,32.6,2.3,112
2011-07-16 16:45:09,30.7,0.6,30.1,32.6,2.3,111
2011-07-16 16:50:09,30.8,2.0,28.8,32.6,2.3,111
2011-07-16 16:55:09,30.2,4.8,25.5,32.6,2.3,111
2011-07-16 17:00:09,30.0,2.3,27.6,32.6,2.3,112
2011-07-16 17:05:09,30.0,1.6,28.4,32.6,2.3,111
2011-07-16 17:10:09,29.3,8.1,21.2,32.6,2.3,112
2011-07-16 17:15:09,28.2,7.9,20.3,32.4,2.3,111
2011-07-16 17:20:09,24.8,10.1,14.7,32.3,2.6,112
2011-07-16 17:25:09,22.9,7.8,15.1,32.1,29.6,111
2011-07-16 17:30:09,21.5,9.9,11.6,32.3,21.9,112
2011-07-16 17:35:09,20.8,11.8,9.0,32.4,25.1,111
2011-07-16 17:40:09,20.7,13.5,7.2,32.5,11.8,112
2011-07-16 17:45:09,21.2,5.1,16.1,32.6,2.3,111
2011-07-16 17:50:09,25.0,-0.3,25.3,32.6,2.3,112
2011-07-16 17:55:09,27.9,-0.8,28.7,32.6,2.3,112
2011-07-16 18:00:09,28.8,-1.0,29.8,32.6,2.3,112
2011-07-16 18:05:09,29.2,-1.0,30.2,32.6,2.3,112
2011-07-16 18:10:09,29.4,-1.1,30.5,32.6,2.3,112
2011-07-16 18:15:09,29.6,0.5,29.1,32.6,2.3,111
2011-07-16 18:20:09,29.9,0.1,29.7,32.6,2.3,111
2011-07-16 18:25:09,29.0,4.6,24.4,32.3,2.3,112
2011-07-16 18:30:09,25.1,8.9,16.2,31.9,8.6,112
2011-07-16 18:35:09,22.9,11.8,11.1,32.1,29.1,111
2011-07-16 18:40:09,21.8,11.5,10.2,32.3,14.7,111
2011-07-16 18:45:09,21.1,10.8,10.2,32.3,15.8,111
2011-07-16 18:50:09,20.8,10.6,10.3,32.2,12.1,112
2011-07-16 18:55:09,20.7,10.2,10.5,32.4,8.6,111
2011-07-16 19:00:09,20.9,6.3,14.6,32.4,2.5,112
2011-07-16 19:05:09,21.0,8.6,12.3,32.2,2.3,112
2011-07-16 19:10:09,20.9,11.7,9.2,32.0,14.6,111
2011-07-16 19:15:09,20.9,12.4,8.5,32.2,34.5,111
2011-07-16 19:20:09,20.5,11.6,8.9,32.4,28.6,112
2011-07-16 19:25:09,20.6,9.6,11.1,32.5,7.7,111
2011-07-16 19:30:09,20.8,6.4,14.4,32.5,3.5,111
2011-07-16 19:35:09,23.0,2.2,20.8,32.3,2.3,112
2011-07-16 19:40:09,22.1,9.2,12.9,32.1,2.3,111
2011-07-16 19:45:09,21.1,8.2,13.0,32.3,2.3,112
2011-07-16 19:50:09,22.4,-0.6,23.0,32.2,2.3,111
2011-07-16 19:55:09,24.3,-1.6,26.0,32.1,2.3,112
2011-07-16 20:00:09,24.7,0.3,24.4,32.1,2.3,111
2011-07-16 20:05:09,24.4,-1.6,25.9,32.1,2.3,112
2011-07-16 20:10:09,24.7,3.1,21.6,32.0,2.3,112
2011-07-16 20:15:09,22.3,6.6,15.7,32.0,2.3,111
2011-07-16 20:20:09,20.9,6.2,14.8,32.1,2.3,112
2011-07-16 20:25:10,20.6,5.1,15.4,32.2,2.2,111
2011-07-16 20:30:10,21.8,-2.8,24.5,32.2,2.2,112
2011-07-16 20:35:10,24.0,-6.7,30.7,32.0,2.3,111
2011-07-16 20:40:10,24.3,-6.7,31.1,32.0,2.3,112
2011-07-16 20:45:10,24.4,-6.9,31.3,31.9,2.3,111
2011-07-16 20:50:10,24.4,-7.0,31.5,31.9,2.3,111
2011-07-16 20:55:10,24.3,-6.7,31.1,31.7,2.3,112
2011-07-16 21:00:10,24.3,-6.3,30.6,31.6,2.3,112
2011-07-16 21:05:10,24.2,-6.7,30.9,31.3,2.3,112
2011-07-16 21:10:10,24.2,-6.8,31.0,31.0,2.3,111
2011-07-16 21:15:10,24.1,-6.8,31.0,30.5,2.3,112
2011-07-16 21:20:10,24.1,-7.3,31.4,29.6,2.3,112
2011-07-16 21:25:10,24.0,-6.9,30.9,28.3,2.3,112
2011-07-16 21:30:10,24.0,-6.8,30.8,26.4,2.3,112
2011-07-16 21:35:10,24.0,-7.1,31.1,23.6,2.3,111
2011-07-16 21:40:10,24.0,-6.8,30.8,19.7,2.3,112
2011-07-16 21:45:10,23.9,-6.2,30.1,15.2,2.3,111
2011-07-16 21:50:10,23.9,-5.3,29.2,11.2,2.3,112
2011-07-16 21:55:10,23.8,-4.1,27.9,8.3,2.3,112
2011-07-16 22:00:10,23.9,-6.1,30.0,5.8,2.3,112
2011-07-16 22:05:10,23.9,-6.7,30.5,3.7,2.3,111
2011-07-16 22:10:10,23.9,-7.1,31.1,2.4,2.3,112
2011-07-16 22:15:10,23.9,-7.4,31.3,1.5,2.3,111
2011-07-16 22:20:10,23.8,-8.0,31.8,1.0,2.3,112
2011-07-16 22:25:10,23.7,-8.5,32.2,0.7,2.3,111
2011-07-16 22:30:10,23.6,-8.6,32.2,0.4,2.3,112
2011-07-16 22:35:10,23.4,-8.6,32.0,0.3,2.3,112
2011-07-16 22:40:10,23.4,-8.8,32.2,0.2,2.3,111
2011-07-16 22:45:10,23.3,-8.7,32.0,0.2,2.2,112
2011-07-16 22:50:10,23.3,-8.7,32.0,0.1,2.2,111
2011-07-16 22:55:10,23.2,-9.0,32.3,0.1,2.1,112
2011-07-16 23:00:10,23.2,-9.1,32.3,0.1,2.2,112
2011-07-16 23:05:10,23.1,-9.1,32.3,0.1,2.3,112
2011-07-16 23:10:10,23.1,-9.2,32.3,0.1,2.3,112
2011-07-16 23:15:10,23.1,-9.2,32.2,0.1,2.3,111
2011-07-16 23:20:10,23.0,-9.4,32.4,0.1,2.3,112
2011-07-16 23:25:10,22.9,-9.4,32.3,0.1,2.3,112
2011-07-16 23:30:10,22.9,-9.5,32.4,0.1,2.3,111
2011-07-16 23:35:10,22.9,-9.6,32.5,0.1,2.3,112
2011-07-16 23:40:10,22.8,-9.6,32.4,0.1,2.3,112
2011-07-16 23:45:10,22.8,-9.3,32.0,0.1,2.3,112
2011-07-16 23:50:10,22.7,-9.3,32.1,0.1,2.3,112
2011-07-16 23:55:10,22.7,-9.5,32.2,0.1,2.3,111
